DECAYED

CZ-6A DEB, 60677 (Decayed)

Orbit data source: Space-Track

CZ-6A DEB, 60677 was space debris in LEO originally from a launch on Tue, 06 Aug 2024 UTC launched from the Taiyaun Space Center, China (TSC). Debris objects in space refer to the collection of defunct objects orbiting the Earth. Examples of debris include non-operational satellites, rocket bodies, and fragments generated from explosions, collisions, or faulty payload assembly.

Not visible in the next 10 days
Identifier
60677, 2024-140CE
Orbit
Decayed
Country
Flag of CNCN / PRC
Related business
Manufacturer
SAST
Mission
Decayed spacecraft
Bus & Motor
Unknown
Mass
Unknown
Launch date (UTC)
2024-08-06 (1 year ago)
Launch vehicle
Unknown
Launch site
Taiyaun Space Center, China (TSC)
Object type
Payload
Rocket body
Debris
Shape & HBR
Unknown shape, 0.3 m
Radar Cross Section
Medium (>0.1 m² and <1 m²)

Expand to show TLE details & history
Last TLE update: 4 months ago

TLE from 4 months ago
0 CZ-6A DEB
1 60677U 24140CE  25228.32218623  .10953787 -13020-5  32573-2 0  9997
2 60677  88.4141 271.1956 0002275 299.7309  60.3767 16.27229907 56577
Epoch: 2025-08-16T07:43Z
TLE epoch observation values (Epoch: 2025-08-16T07:43:56.890Z)
Latitude
-0.00005°
Longitude
-169.75053°
Altitude
202.596 km
Speed
7.785 km/s
True Right ascension
18h 04m 46s
True Declination
0° 00' 00"
Sunlit
Object was in full shadow at epoch
Visualization orbit readout
Latitude
Unknown
Longitude
Unknown
Altitude
Unknown
Speed
Unknown
Apparent Right ascension
Unknown
Apparent Declination
Unknown
Sunlit
N/A
Visualization observer readout
Local Sidereal Time
08:56:20
Azimuth
Unknown
Elevation
Unknown
Doppler factor
Unknown
Orbital elements
Apogee altitude
198.156 km
Perigee altitude
195.164 km
Semi-major axis
6,574.797 km
Eccentricity
0.00023
Inclination
88.4141°
RAAN
271.1956°
Arg. of periapsis
299.7309°
True anomaly
60.39937°
Mean anomaly
60.3767°
Eccentric anomaly
60.38803°
Mean motion
4.07117 °/min
Orbital period
88.43 mins
BSTAR
0.0032573
Loading maneuver chart data...
Computing Atmospheric mass density...
Loading historical data...
Loading historical data...
Loading historical data...
Loading historical data...
Loading historical data...
Loading historical data...
Loading historical data...

Documentation

Showing up to 5 results
|